Simultaneous Nadir Overpasses (SNOs) Predictions

Prediction of SNOs between GOES-15 and NOAA-19 Satellite Orbit:

Table of predicted SNOs for the next 14.0 days since TLE Epoch: 8/29/2025
Index Date Time (GOES-15) GOES-15 Lat,Lon NOAA-19 Lat,Lon Distance(km) Time Diff (sec)
1 08/30/2025 17:55:54 -0.37, 61.58 -0.71, 60.18 160.76 80
2 08/31/2025 17:40:36 -0.35, 61.57 0.05, 63.24 190.90 80
3 09/03/2025 06:01:37 0.41, 61.44 1.03, 58.87 294.64 80
4 09/04/2025 05:46:18 0.39, 61.43 0.31, 61.94 56.84 80
5 09/05/2025 05:33:39 0.38, 61.42 -0.41, 65.01 408.17 80
6 09/06/2025 18:07:38 -0.45, 61.51 -1.37, 57.48 458.91 80
7 09/07/2025 17:54:58 -0.43, 61.50 -0.65, 60.55 107.80 80
8 09/08/2025 17:39:39 -0.41, 61.49 0.07, 63.62 243.16 80
9 09/11/2025 06:00:41 0.46, 61.38 0.93, 59.24 244.14 80
10 09/12/2025 05:45:20 0.45, 61.38 0.26, 62.32 106.56 80
